Regional Weather Roundup
Issued by NWS State College, PA

Home | Current Version | Previous Version | Graphics & Text | Print | Product List | Glossary On
Versions: 1 2 3 4 5 6 7 8 9 10 11 12 13 14 15 16 17 18 19 20 21 22 23 24 25 26 27 28 29 30 31 32 33 34 35 36 37 38 39 40 41 42 43 44 45 46 47 48 49 50
000
ASUS41 KCTP 271203
RWRCTP

REGIONAL WEATHER ROUNDUP
NATIONAL WEATHER SERVICE STATE COLLEGE PA
700 AM EST SAT DEC 27 2014

Note: "fair" indicates few or no clouds below 12,000 feet with no
significant weather and/or obstructions to visibility.

* = STATION THAT DOES NOT REPORT PRECIPITATION /E.G. RAIN...SNOW...ETC/
    THUNDER OR FOG.

PAZ002>004-007>009-013>016-020>023-029>032-271300-
WESTERN PENNSYLVANIA

CITY           SKY/WX    TMP DP  RH WIND       PRES   REMARKS
ERIE           CLOUDY    44  33  65 S8        30.16S
MEADVILLE      CLOUDY    41  31  67 S7        30.16S
FRANKLIN*      CLOUDY    36  28  75 S9        30.20R
NEW CASTLE       N/A     38  32  79 CALM      30.21S
BEAVER COUNTY  NOT AVBL
BUTLER*        CLOUDY    39  30  70 S6        30.22S
PITTSBURGH INT CLOUDY    36  30  79 CALM      30.20S
PITTSBURGH     CLOUDY    39  26  59 S8        30.21R
INDIANA*       CLOUDY    32  30  93 CALM      30.25S
LATROBE        MOCLDY    28  25  86 CALM      30.25R
WASHINGTON CO* NOT AVBL
$$

PAZ004>006-010>012-017>019-024>028-033>037-041-042-045-046-049>053-271300-
CENTRAL PENNSYLVANIA

CITY           SKY/WX    TMP DP  RH WIND       PRES   REMARKS
BRADFORD       CLOUDY    37  29  72 SW6       30.17R
DUBOIS         CLOUDY    36  30  79 SW6       30.19R
CLEARFIELD     CLOUDY    29  28  96 CALM      30.21S
JOHNSTOWN      CLEAR     37  23  56 W8        30.19R
ALTOONA        CLEAR     34  25  69 CALM      30.22R
STATE COLLEGE  NOT AVBL
WILLIAMSPORT   CLOUDY    30  27  88 CALM      30.25R
SELINSGROVE    MOCLDY    29  27  92 CALM      30.26R FOG
FT INDIANTOWN  MOCLDY    27  26  95 CALM      30.25S
CAPITAL CITY   MOCLDY    28  26  92 CALM      30.26S
HARRISBURG     MOCLDY    28  26  92 E3        30.25S
YORK           MOCLDY    27  25  92 N3        30.25S
$$

PAZ038>040-043-044-047-048-054-055-060>062-067>071-271300-
EASTERN PENNSYLVANIA

CITY           SKY/WX    TMP DP  RH WIND       PRES   REMARKS
SCRANTON       MOCLDY    31  28  89 VRB5      30.21F
MOUNT POCONO   PTCLDY    34  28  79 NW6       30.19R
ALLENTOWN      PTCLDY    29  25  85 CALM      30.25R
QUAKERTOWN*    NOT AVBL
READING        PTCLDY    29  27  92 CALM      30.25R
LANCASTER      MOCLDY    27  25  92 E3        30.25R FOG
COATESVILLE    SUNNY     39  32  75 NW6       30.25R
POTTSTOWN      PTCLDY    29  27  92 CALM      30.27R
BLUE BELL      PTCLDY    32  32 100 CALM      30.26R
DOYLESTOWN     PTCLDY    32  30  92 CALM      30.24R
WILLOW GROVE   NOT AVBL
NORTH PHILA    PTCLDY    33  28  81 CALM      30.27R
PHILADELPHIA   MOCLDY    35  31  85 SW3       30.27R
$$


USA.gov is the U.S. government's official web portal to all federal, state and local government web resources and services.